Weather observations for the past three days for
Mesquite, Mesquite Metro Airport
Imperial (Metric)
Date Time (cdt) Wind (mph) Vis. (mi.) Weather Sky Cond. Temperature (ºF) Relative Humidity Wind Chill (°F) Heat Index (°F) Pressure Precipitation (in)
Air Dwpt 6 hour altimeter (in) sea level (mb) 1 hr 3 hr 6 hr
Max. Min.
21 06:15 SW 5 10.00 Mostly Cloudy BKN080 76.1 66.7 73% 78 30.02 0.0
21 05:55 Calm 10.00 Mostly Cloudy BKN090 75.7 66.6 73% 77 30.02 0.0
21 05:35 Calm 10.00 Partly Cloudy SCT090 75.6 66.4 73% 77 30.02 0.0
21 05:15 Calm 10.00 Fair CLR 75.6 67.1 75% 77 30.01 0.0
21 04:55 SW 3 10.00 Mostly Cloudy SCT090 BKN120 75.7 66.9 74% 77 30.01 0.0
21 04:35 S 3 10.00 Overcast OVC090 76.1 66.4 72% 78 30.01 0.0
21 04:15 S 5 10.00 Overcast BKN090 OVC110 77 65.8 69% 79 30.01 0.0
21 03:55 SE 5 10.00 Overcast OVC090 77.5 65.5 67% 79 30.01 0.0
21 03:35 SE 5 10.00 Overcast OVC100 77.5 65.3 66% 79 30.01 0.0
21 03:15 SE 5 10.00 Overcast OVC110 77.9 65.3 65% 80 30.01 0.0
21 02:55 SE 6 10.00 Overcast OVC110 78.1 65.3 65% 80 30.01 0.0
21 02:35 SE 5 10.00 Overcast OVC110 78.3 65.3 65% 80 30.02 0.0
21 02:15 SE 3 10.00 Overcast OVC100 78.4 65.1 64% 80 30.03 0.0
21 01:55 SE 3 10.00 Overcast OVC100 78.3 64.8 63% 80 30.03 0.0
21 01:35 SE 3 10.00 Overcast OVC100 78.3 64.8 63% 80 30.03 0.0
21 01:15 Calm 10.00 Partly Cloudy SCT110 78.4 64.8 63% 80 30.03 0.0
21 00:55 Calm 10.00 Fair CLR 78.8 64.9 90.9 78.8 63% 81 30.03 0.0
21 00:35 Calm 10.00 Fair CLR 79 65.1 63% 81 30.03 0.0
21 00:15 SE 3 10.00 Fair CLR 79.2 65.3 63% 81 30.02 0.0
20 23:55 SE 5 10.00 Fair CLR 79.2 64.9 62% 81 30.03 0.0
20 23:35 Calm 10.00 Fair CLR 79.2 64.6 61% 81 30.04 0.0
20 23:15 Calm 10.00 Partly Cloudy SCT095 79.5 65.3 62% 81 30.04 0.0
20 22:55 SE 5 10.00 Partly Cloudy SCT095 80.6 63.9 57% 82 30.04 0.0
20 22:35 N 3 10.00 Fair CLR 80.8 63.9 56% 82 30.03 0.0
20 22:15 SE 3 10.00 Fair CLR 81.1 63.5 55% 83 30.01 0.0
20 21:55 SE 6 10.00 Fair CLR 81.7 63.5 54% 83 30.01 0.0
20 21:35 SE 5 10.00 Fair CLR 82.4 63.5 53% 84 30.01 0.0
20 21:15 E 6 10.00 Fair CLR 83.3 63.5 51% 85 30.01 0.0
20 20:55 SE 6 10.00 Fair CLR 84.2 63.5 50% 85 30.01 0.0
20 18:50 SE 10 10.00 Fair CLR 91.4 62.6 38% 92 29.99 0.0
20 17:50 SE 7 10.00 Mostly Cloudy BKN065 93.2 62.6 36% 94 29.99 0.0
20 16:50 E 5 10.00 Partly Cloudy SCT060 95 59 30% 94 30.03 0.0
20 15:50 E 10 10.00 Partly Cloudy SCT060 96.8 60.8 30% 97 30.01 0.0
20 13:50 NE 5 10.00 Partly Cloudy SCT060 93.2 60.8 34% 93 30.05 0.0
20 12:51 E 3 10.00 Fair CLR 93.2 60.8 34% 93 30.07 0.0
20 11:51 Calm 10.00 Fair CLR 89.6 62.6 41% 90 30.09 0.0
20 10:51 S 5 10.00 Fair CLR 84.2 66.2 55% 87 30.09 0.0
20 09:51 S 6 10.00 Fair CLR 80.6 66.2 62% 83 30.09 0.0
20 08:51 SE 3 10.00 Fair CLR 78.8 66.2 65% 81 30.09 0.0
20 07:52 Calm 10.00 Fair CLR 71.6 66.2 83% 30.07 0.0
20 06:35 Calm 10.00 Fair CLR 66.6 62.1 86% 30.06 0.0
20 06:15 Calm 10.00 Fair CLR 66.6 62.1 86% 30.06 0.0
20 05:55 Calm 10.00 Fair CLR 66.4 59 77% 30.06 0.0
20 05:35 N 3 10.00 Fair CLR 67.1 59.2 76% 30.05 0.0
20 05:15 Calm 10.00 Fair CLR 68 61.7 80% 30.06 0.0
20 04:55 Calm 10.00 Fair CLR 68.2 63.1 84% 30.05 0.0
20 04:35 Calm 10.00 Fair CLR 68.2 60.6 77% 30.05 0.0
20 04:15 Calm 10.00 Fair CLR 69.4 61.3 76% 30.04 0.0
20 03:35 Calm 10.00 Fair CLR 68.7 61.7 78% 30.04 0.0
20 03:15 Calm 10.00 Fair CLR 68.4 61.3 78% 30.03 0.0
20 02:55 Calm 10.00 Fair CLR 69.1 63 81% 30.03 0.0
20 02:35 S 3 10.00 Fair CLR 69.8 63.3 80% 30.02 0.0
20 02:15 SE 3 10.00 Fair CLR 70.2 63.5 80% 30.02 0.0
20 01:55 Calm 10.00 Fair CLR 70.7 62.4 75% 30.02 0.0
20 01:35 SE 3 10.00 Fair CLR 71.2 63 75% 30.02 0.0
20 01:15 Calm 10.00 Fair CLR 71.6 64 77% 30.03 0.0
20 00:55 Calm 10.00 Fair CLR 72.1 62.8 91 72 73% 30.03 0.0
20 00:35 Calm 10.00 Fair CLR 72.1 61.7 70% 30.04 0.0
20 00:15 Calm 10.00 Fair CLR 72.9 60.1 64% 30.04 0.0
19 23:55 Calm 10.00 Fair CLR 73.4 61.2 66% 30.04 0.0
19 23:35 Calm 10.00 Fair CLR 74.3 60.6 62% 30.04 0.0
19 23:15 Calm 10.00 Fair CLR 74.5 59.7 60% 30.05 0.0
19 22:55 Calm 10.00 Fair CLR 75.6 61.3 61% 78 30.04 0.0
19 22:35 Calm 10.00 Fair CLR 76.6 61.7 60% 78 30.04 0.0
19 22:15 Calm 10.00 Fair CLR 77.7 59.2 53% 79 30.04 0.0
19 21:55 Calm 10.00 Fair CLR 78.8 60.4 53% 80 30.03 0.0
19 21:35 SE 3 10.00 Fair CLR 80.1 60.8 52% 81 30.02 0.0
19 21:15 SE 3 10.00 Fair CLR 81.1 61 50% 82 30.01 0.0
19 20:55 E 5 10.00 Fair CLR 82.4 60.8 48% 83 30 0.0
19 19:50 E 7 10.00 Fair CLR 87.8 60.8 40% 88 29.99 0.0
19 18:50 E 6 10.00 Fair CLR 91.4 59 34% 91 29.99 0.0
19 17:50 Calm 10.00 Partly Cloudy SCT070 93.2 57.2 30% 92 30 0.0
19 16:50 Calm 10.00 Partly Cloudy SCT065 95 57.2 28% 94 30.01 0.0
19 15:50 NE 5 10.00 Partly Cloudy SCT065 91.4 57.2 32% 90 30.02 0.0
19 13:50 Calm 10.00 Fair CLR 93.2 57.2 30% 92 30.07 0.0
19 11:50 E 5 10.00 Fair CLR 87.8 62.6 43% 88 30.1 0.0
19 10:50 E 8 10.00 Fair CLR 84.2 64.4 51% 86 30.11 0.0
19 09:54 E 8 10.00 Fair CLR 80.6 66.2 62% 83 30.12 0.0
19 09:50 E 8 10.00 Fair CLR 80.6 66.2 62% 83 30.12 0.0
19 07:50 Calm 10.00 Fair CLR 78.8 69.8 74% 81 30.11 0.0
19 06:50 Calm 7.00 Fair CLR 71.6 69.8 94% 30.07 0.0
19 06:35 Calm 7.00 Fair CLR 71.8 69.3 92% 30.07 0.0
19 06:15 Calm 7.00 Fair CLR 71.6 68.9 91% 30.07 0.0
19 05:55 Calm 7.00 Fair CLR 71.8 69.1 91% 30.07 0.0
19 05:35 Calm 10.00 Fair CLR 72.5 69.8 91% 30.06 0.0
19 05:15 Calm 10.00 Fair CLR 72.5 69.3 90% 30.06 0.0
19 04:55 Calm 10.00 Fair CLR 72.3 68.5 88% 30.05 0.0
19 04:35 Calm 10.00 Fair CLR 73 69.1 87% 30.06 0.0
19 04:15 Calm 10.00 Partly Cloudy SCT017 74.3 70 86% 30.06 0.0
19 03:55 Calm 10.00 Fair CLR 74.7 70 85% 30.06 0.0
19 03:35 Calm 10.00 Fair CLR 75.2 69.8 83% 75 30.06 0.0
19 03:15 Calm 10.00 Fair CLR 75.6 69.8 82% 76 30.06 0.0
19 02:55 Calm 10.00 Partly Cloudy SCT017 75.6 69.8 82% 76 30.06 0.0
19 02:35 Calm 10.00 Fair CLR 76.1 69.4 80% 77 30.07 0.0
19 02:15 Calm 10.00 Partly Cloudy SCT070 76.3 69.8 80% 77 30.07 0.0
19 01:55 Calm 10.00 Partly Cloudy SCT070 76.6 69.3 78% 78 30.07 0.0
19 01:35 Calm 10.00 Partly Cloudy SCT070 77.2 69.4 77% 79 30.07 0.0
19 01:15 Calm 10.00 Partly Cloudy SCT070 77.5 69.1 75% 79 30.07 0.0
19 00:55 Calm 10.00 Fair CLR 77.9 69.3 90.1 77.9 75% 80 30.07 0.0
19 00:35 Calm 10.00 Fair CLR 78.4 69.3 74% 81 30.06 0.0
19 00:15 SE 3 10.00 Fair CLR 79.3 69.4 72% 82 30.06 0.0
18 23:55 E 5 10.00 Fair CLR 79.7 69.8 72% 83 30.06 0.0
18 23:35 E 5 10.00 Fair CLR 80.2 69.6 70% 83 30.06 0.0
18 23:15 Calm 10.00 Fair CLR 80.2 69.8 71% 83 30.06 0.0
18 22:55 Calm 10.00 Partly Cloudy SCT110 80.6 70.2 71% 84 30.06 0.0
18 22:35 Calm 10.00 Mostly Cloudy BKN110 81 69.8 69% 84 30.06 0.0
18 22:15 Calm 10.00 Partly Cloudy SCT041 SCT120 81.1 69.8 69% 85 30.05 0.0
18 21:55 Calm 10.00 Fair CLR 81.5 69.3 67% 85 30.04 0.0
18 21:35 Calm 10.00 Fair CLR 82 68.9 65% 85 30.04 0.0
18 21:15 Calm 10.00 Partly Cloudy SCT120 82.6 69.1 64% 86 30.02 0.0
18 20:55 Calm 10.00 Partly Cloudy SCT120 83.5 69.1 62% 87 30.02 0.0
18 19:50 NE 7 10.00 Partly Cloudy SCT040 SCT047 87.8 69.8 55% 93 30 0.0
18 18:50 NE 8 10.00 Partly Cloudy SCT095 91.4 69.8 49% 97 29.99 0.0
18 17:50 NE 9 10.00 Partly Cloudy SCT036 91.4 69.8 49% 97 29.98 0.0
18 16:50 N 13 G 20 10.00 Partly Cloudy SCT060 91.4 69.8 49% 97 30 0.0
18 15:50 N 13 G 23 10.00 Mostly Cloudy BKN042 91.4 71.6 52% 99 30.01 0.0
18 14:50 N 10 10.00 Partly Cloudy SCT038 93.2 68 44% 98 30.02 0.0
18 13:50 N 8 10.00 Partly Cloudy SCT050 91.4 69.8 49% 97 30.04 0.0
18 12:50 NE 6 10.00 Mostly Cloudy SCT030 BKN037 89.6 69.8 52% 95 30.07 0.0
18 11:50 N 3 10.00 Mostly Cloudy SCT026 BKN050 87.8 69.8 55% 93 30.09 0.0
18 10:50 N 3 10.00 Mostly Cloudy BKN018 84.2 71.6 66% 90 30.08 0.0
18 09:50 N 3 10.00 Partly Cloudy SCT016 80.6 71.6 74% 85 30.08 0.0
18 08:50 Calm 10.00 Partly Cloudy SCT016 80.6 71.6 74% 85 30.07 0.0
18 07:50 Calm 7.00 Fair CLR 75.2 71.6 89% 75 30.05 0.0
18 06:50 Calm 3.00 Fog/Mist CLR 71.6 69.8 94% 30.03 0.0
18 06:35 Calm 1.75 Sky Obscured VV007 70.7 68.9 94% 30.03 0.0
Date Time (cdt) Wind (mph) Vis. (mi.) Weather Sky Cond. Air Dwpt Max. Min. Relative Humidity Wind Chill (°F) Heat Index (°F) altimeter (in) sea level (mb) 1 hr 3 hr 6 hr
6 hour
Temperature (ºF) Pressure Precipitation (in)